{"data":{"norad_id":37207,"intl_designator":"2010-056B","name":"BSAT-3B","alt_names":[],"object_type":"PAYLOAD","status":"ACTIVE","operator":null,"country":"JPN","launch_date":"2010-10-28","launch_site_code":"FRGUI","launch_vehicle":null,"mission":null,"orbit_class":"UNKNOWN","rcs_meters":10,"size_class":null,"mass_kg":null,"dimensions":null,"purposes":["comms"],"wikipedia_slug":null,"has_3d_model":false,"image_url":null,"decayed_at":null,"tle_current":{"epoch":"2026-09-20T00:20:08.946816Z","epoch_age_seconds":60293,"freshness":"FRESH","line1":"1 37207U 10056B   26263.01399244 -.00000354  00000+0  00000+0 0  9993","line2":"2 37207   0.0473 243.4206 0004192 322.0192 268.3656  1.00272216 53051","mean_motion":1.00272216,"eccentricity":0.0004192,"inclination_deg":0.0473,"raan_deg":243.4206,"arg_perigee_deg":322.0192,"mean_anomaly_deg":268.3656,"bstar":0,"rev_number":5305,"period_min":1436.090731255,"perigee_km":35768.798731689,"apogee_km":35804.149541666,"semimajor_km":42164.611136678,"source":"CELESTRAK","updated_at":"2026-09-20T09:00:35.165565Z"}}}